Volver al catálogo

COSMOS 2352

ActivoMilitarPO
NORAD 25363·PAYLOAD·🇷🇺 Russia

Lanzado Jun 15, 1998 desde Plesetsk Cosmodrome

Loading…

Próximos Pases (próximas 24 horas)

TLE

ActualizadoSource: Space-Track

Época: Sep 14, 2026, 14:52 UTC

1 25363U 98036A   26257.61967375 -.00000000  00000-0 -96146-4 0  9993
2 25363  82.5924 310.3631 0353430  76.5038  74.6962 12.20138489258204

Sigue COSMOS 2352 en tiempo real con AllMySat

Download on the App Store